Historique de la station de Léran 09 IARIEGEL2
 
Jour - Résumé pour Octobre 22, 2019 Unité:  Metrique    English   Les deux
Suivant Jour »
Jour semaine Mois Année Custom
  Actuel: Haut: Bas: Moyenne:
Temperature: 11.0 °C 12.1 °C 10.8 °C 11.4 °C
Point de rosée: 10.4 °C 11.1 °C 9.7 °C 10.4 °C
Humidité: 96% 96% 90% 94%
Vitesse du vent: 0.0km/h 5.0km/h 0.0km/h 0.6km/h
rafale de vent: 0.0km/h 9.7km/h - -
VentCalm - - ESE
Pression: 1013.4 hPa 1022.2 hPa 1013.4 hPa -
Precipitation: 13.0 mm      
Historical Graphs
 
 
Pour les données tabulaires Octobre 22, 2019
Heure Temperature Point de rosée Pression Direction Vitesse rafale Humidité Taux de pluie(Heure) solaire Conditions
00:00 12.1 °C 10.5 °C 1021.9 hPa Calm     90% 0.0 mm 0.00 W/m2
00:05 12.1 °C 10.5 °C 1021.9 hPa Calm     90% 0.0 mm 0.00 W/m2
00:10 12.1 °C 10.5 °C 1022.2 hPa Calm     90% 0.0 mm 0.00 W/m2
00:15 12.1 °C 10.5 °C 1021.9 hPa Calm     90% 0.0 mm 0.00 W/m2
00:20 12.0 °C 10.6 °C 1022.2 hPa Calm     91% 0.0 mm 0.00 W/m2
00:25 12.0 °C 10.6 °C 1022.2 hPa Calm     91% 0.0 mm 0.00 W/m2
00:30 12.0 °C 10.6 °C 1022.2 hPa Calm     91% 0.0 mm 0.00 W/m2
00:35 12.0 °C 10.6 °C 1022.2 hPa Calm   1.6 km/h 91% 0.0 mm 0.00 W/m2
00:40 12.0 °C 10.6 °C 1021.9 hPa Calm     91% 0.0 mm 0.00 W/m2
00:45 12.0 °C 10.6 °C 1022.2 hPa Calm     91% 0.0 mm 0.00 W/m2
00:50 11.9 °C 10.5 °C 1022.2 hPa Calm     91% 0.0 mm 0.00 W/m2
00:55 11.9 °C 10.5 °C 1021.9 hPa Calm     91% 0.0 mm 0.00 W/m2
01:00 11.9 °C 10.5 °C 1021.9 hPa Calm     91% 0.0 mm 0.00 W/m2
01:05 11.9 °C 10.5 °C 1022.2 hPa Calm     91% 0.0 mm 0.00 W/m2
01:10 11.9 °C 10.5 °C 1021.9 hPa Calm     91% 0.0 mm 0.00 W/m2
01:15 11.9 °C 10.5 °C 1021.9 hPa Calm     91% 0.0 mm 0.00 W/m2
01:20 11.8 °C 10.4 °C 1021.9 hPa Calm     91% 0.0 mm 0.00 W/m2
01:25 11.8 °C 10.4 °C 1021.9 hPa Calm     91% 0.0 mm 0.00 W/m2
01:30 11.8 °C 10.4 °C 1021.9 hPa Calm     91% 0.0 mm 0.00 W/m2
01:35 11.8 °C 10.4 °C 1021.9 hPa Calm     91% 0.0 mm 0.00 W/m2
01:40 11.7 °C 10.3 °C 1021.9 hPa Calm     91% 0.0 mm 0.00 W/m2
01:45 11.7 °C 10.3 °C 1021.9 hPa Calm     91% 0.0 mm 0.00 W/m2
01:50 11.7 °C 10.3 °C 1021.9 hPa Calm     91% 0.0 mm 0.00 W/m2
01:55 11.6 °C 10.2 °C 1021.9 hPa Calm     91% 0.0 mm 0.00 W/m2
02:00 11.5 °C 10.1 °C 1021.6 hPa Calm     91% 0.0 mm 0.00 W/m2
02:05 11.5 °C 10.1 °C 1021.6 hPa Calm     91% 0.0 mm 0.00 W/m2
02:10 11.5 °C 10.1 °C 1021.6 hPa Calm     91% 0.0 mm 0.00 W/m2
02:15 11.5 °C 10.2 °C 1021.6 hPa Calm     92% 0.0 mm 0.00 W/m2
02:20 11.4 °C 10.0 °C 1021.6 hPa Calm     91% 0.0 mm 0.00 W/m2
02:25 11.4 °C 10.1 °C 1021.9 hPa Calm     92% 0.0 mm 0.00 W/m2
02:30 11.4 °C 10.1 °C 1021.9 hPa Calm     92% 0.0 mm 0.00 W/m2
02:35 11.4 °C 10.1 °C 1021.6 hPa Calm     92% 0.0 mm 0.00 W/m2
02:40 11.4 °C 10.1 °C 1021.9 hPa Calm     92% 0.0 mm 0.00 W/m2
02:45 11.3 °C 10.0 °C 1021.9 hPa Calm     92% 0.0 mm 0.00 W/m2
02:50 11.3 °C 10.0 °C 1021.6 hPa Calm     92% 0.0 mm 0.00 W/m2
02:55 11.3 °C 10.0 °C 1021.6 hPa Calm     92% 0.0 mm 0.00 W/m2
03:00 11.3 °C 10.0 °C 1021.6 hPa Calm     92% 0.0 mm 0.00 W/m2
03:05 11.3 °C 10.0 °C 1021.6 hPa Calm     92% 0.0 mm 0.00 W/m2
03:10 11.3 °C 10.2 °C 1021.6 hPa Calm     93% 0.0 mm 0.00 W/m2
03:15 11.2 °C 10.1 °C 1021.9 hPa Calm     93% 0.0 mm 0.00 W/m2
03:20 11.2 °C 10.1 °C 1021.9 hPa Calm     93% 0.0 mm 0.00 W/m2
03:25 11.2 °C 10.1 °C 1021.6 hPa Calm     93% 0.0 mm 0.00 W/m2
03:30 11.2 °C 10.1 °C 1021.6 hPa Calm     93% 0.0 mm 0.00 W/m2
03:35 11.1 °C 10.0 °C 1021.6 hPa Calm     93% 0.0 mm 0.00 W/m2
03:40 11.2 °C 10.1 °C 1021.6 hPa Calm     93% 0.0 mm 0.00 W/m2
03:45 11.1 °C 10.0 °C 1021.6 hPa Calm     93% 0.0 mm 0.00 W/m2
03:50 11.1 °C 10.0 °C 1021.6 hPa Calm     93% 0.0 mm 0.00 W/m2
03:55 11.2 °C 10.1 °C 1021.2 hPa Calm     93% 0.0 mm 0.00 W/m2
04:00 11.2 °C 10.1 °C 1021.2 hPa Calm     93% 0.0 mm 0.00 W/m2
04:05 11.2 °C 10.1 °C 1021.6 hPa Calm     93% 0.0 mm 0.00 W/m2
04:10 11.1 °C 10.0 °C 1021.9 hPa Calm     93% 0.0 mm 0.00 W/m2
04:15 11.1 °C 10.2 °C 1021.9 hPa Calm     94% 0.0 mm 0.00 W/m2
04:20 11.1 °C 10.2 °C 1021.9 hPa Calm     94% 0.0 mm 0.00 W/m2
04:25 11.1 °C 10.2 °C 1021.9 hPa Calm     94% 0.0 mm 0.00 W/m2
04:30 11.1 °C 10.2 °C 1022.2 hPa Calm     94% 0.0 mm 0.00 W/m2
04:35 11.1 °C 10.2 °C 1021.6 hPa North 3.2 km/h 3.2 km/h 94% 0.0 mm 0.00 W/m2
04:40 11.0 °C 10.1 °C 1021.6 hPa North 1.8 km/h 4.8 km/h 94% 0.0 mm 0.00 W/m2
04:45 11.0 °C 10.1 °C 1021.6 hPa Calm     94% 0.0 mm 0.00 W/m2
04:50 11.0 °C 10.1 °C 1021.2 hPa North 1.8 km/h 1.6 km/h 94% 0.0 mm 0.00 W/m2
04:55 11.0 °C 10.1 °C 1021.2 hPa North 1.8 km/h 1.6 km/h 94% 0.0 mm 0.00 W/m2
05:00 11.0 °C 10.1 °C 1021.2 hPa Calm     94% 0.0 mm 0.00 W/m2
05:05 11.0 °C 10.1 °C 1021.2 hPa Calm     94% 0.0 mm 0.00 W/m2
05:10 11.0 °C 10.1 °C 1021.2 hPa Calm     94% 0.0 mm 0.00 W/m2
05:15 11.0 °C 10.1 °C 1021.2 hPa Calm     94% 0.0 mm 0.00 W/m2
05:20 11.0 °C 9.9 °C 1021.2 hPa Calm     93% 0.0 mm 0.00 W/m2
05:25 11.0 °C 9.9 °C 1021.2 hPa Calm     93% 0.0 mm 0.00 W/m2
05:30 11.0 °C 9.9 °C 1021.2 hPa Calm     93% 0.0 mm 0.00 W/m2
05:35 11.0 °C 9.9 °C 1021.2 hPa Calm     93% 0.0 mm 0.00 W/m2
05:40 11.0 °C 9.9 °C 1021.6 hPa Calm     93% 0.0 mm 0.00 W/m2
05:45 11.0 °C 9.9 °C 1021.2 hPa Calm     93% 0.0 mm 0.00 W/m2
05:50 11.0 °C 9.9 °C 1021.2 hPa Calm     93% 0.0 mm 0.00 W/m2
05:55 11.0 °C 9.9 °C 1021.6 hPa Calm     93% 0.0 mm 0.00 W/m2
06:00 11.0 °C 9.9 °C 1021.2 hPa Calm     93% 0.0 mm 0.00 W/m2
06:05 11.0 °C 9.9 °C 1021.2 hPa Calm     93% 0.0 mm 0.00 W/m2
06:10 11.0 °C 9.9 °C 1021.2 hPa Calm     93% 0.0 mm 0.00 W/m2
06:15 11.0 °C 9.9 °C 1021.2 hPa Calm     93% 0.0 mm 0.00 W/m2
06:20 10.9 °C 9.8 °C 1021.2 hPa Calm     93% 0.0 mm 0.00 W/m2
06:25 10.9 °C 9.8 °C 1021.2 hPa Calm     93% 0.0 mm 0.00 W/m2
06:30 10.9 °C 9.8 °C 1021.2 hPa Calm     93% 0.0 mm 0.00 W/m2
06:35 10.9 °C 9.8 °C 1021.2 hPa Calm     93% 0.0 mm 0.00 W/m2
06:40 10.9 °C 9.8 °C 1021.2 hPa Calm     93% 0.0 mm 0.00 W/m2
06:45 10.9 °C 9.8 °C 1021.2 hPa Calm     93% 0.0 mm 0.00 W/m2
06:50 10.9 °C 9.8 °C 1021.2 hPa Calm     93% 0.0 mm 0.00 W/m2
06:55 10.9 °C 9.8 °C 1021.2 hPa Calm     93% 0.0 mm 0.00 W/m2
07:00 10.9 °C 9.8 °C 1021.2 hPa Calm     93% 0.0 mm 0.00 W/m2
07:05 10.9 °C 9.8 °C 1021.2 hPa Calm     93% 0.0 mm 0.00 W/m2
07:10 10.9 °C 9.8 °C 1021.2 hPa Calm     93% 0.0 mm 0.00 W/m2
07:15 10.9 °C 9.8 °C 1021.2 hPa Calm     93% 0.0 mm 0.00 W/m2
07:20 10.9 °C 9.8 °C 1020.9 hPa Calm     93% 0.0 mm 0.00 W/m2
07:25 10.9 °C 9.8 °C 1020.9 hPa Calm     93% 0.0 mm 0.00 W/m2
07:30 10.8 °C 9.7 °C 1020.5 hPa Calm     93% 0.0 mm 0.00 W/m2
07:35 10.8 °C 9.7 °C 1020.9 hPa Calm     93% 0.0 mm 0.00 W/m2
07:40 10.8 °C 9.7 °C 1020.9 hPa Calm     93% 0.0 mm 0.00 W/m2
07:45 10.8 °C 9.7 °C 1020.9 hPa Calm     93% 0.0 mm 0.00 W/m2
07:50 10.8 °C 9.9 °C 1020.9 hPa Calm     94% 0.0 mm 0.00 W/m2
07:55 10.8 °C 9.9 °C 1020.9 hPa Calm     94% 0.0 mm 0.00 W/m2
08:00 10.8 °C 9.9 °C 1020.5 hPa Calm     94% 0.0 mm 0.00 W/m2
08:05 10.8 °C 9.9 °C 1020.9 hPa Calm     94% 0.0 mm 0.00 W/m2
08:10 10.8 °C 9.9 °C 1020.9 hPa Calm     94% 0.0 mm 0.00 W/m2
08:15 10.8 °C 9.9 °C 1020.9 hPa Calm     94% 0.0 mm 0.00 W/m2
08:20 10.8 °C 9.9 °C 1020.9 hPa Calm     94% 0.0 mm 0.00 W/m2
08:25 10.8 °C 9.9 °C 1020.9 hPa Calm     94% 0.0 mm 0.00 W/m2
08:30 10.8 °C 9.9 °C 1020.9 hPa Calm     94% 0.0 mm 0.00 W/m2
08:35 10.9 °C 10.0 °C 1020.5 hPa Calm     94% 0.0 mm 0.00 W/m2
08:40 10.9 °C 10.0 °C 1020.5 hPa Calm     94% 0.0 mm 5.00 W/m2
08:45 10.9 °C 10.0 °C 1020.9 hPa Calm     94% 0.0 mm 5.00 W/m2
08:50 10.9 °C 10.0 °C 1020.9 hPa Calm     94% 0.0 mm 5.00 W/m2
08:55 10.9 °C 10.0 °C 1020.9 hPa Calm     94% 0.0 mm 5.00 W/m2
09:00 10.9 °C 10.0 °C 1020.9 hPa Calm     94% 0.0 mm 5.00 W/m2
09:05 10.9 °C 10.0 °C 1021.2 hPa Calm     94% 0.0 mm 7.00 W/m2
09:10 11.0 °C 10.1 °C 1021.2 hPa Calm     94% 0.0 mm 9.00 W/m2
09:15 11.0 °C 10.1 °C 1021.2 hPa Calm     94% 0.0 mm 9.00 W/m2
09:20 11.0 °C 10.1 °C 1021.2 hPa Calm     94% 0.0 mm 9.00 W/m2
09:25 11.0 °C 10.1 °C 1021.2 hPa North 1.8 km/h 1.6 km/h 94% 0.0 mm 9.00 W/m2
09:30 11.0 °C 10.1 °C 1021.2 hPa North 1.8 km/h 3.2 km/h 94% 0.0 mm 9.00 W/m2
09:35 11.0 °C 10.1 °C 1021.2 hPa Calm     94% 0.0 mm 11.00 W/m2
09:40 11.0 °C 10.1 °C 1021.2 hPa Calm     94% 0.0 mm 12.00 W/m2
09:45 11.0 °C 10.1 °C 1021.2 hPa Calm     94% 0.3 mm 12.00 W/m2
09:50 11.0 °C 10.1 °C 1021.2 hPa Calm     94% 0.5 mm 16.00 W/m2
09:55 11.0 °C 10.1 °C 1021.2 hPa Calm   1.6 km/h 94% 0.5 mm 25.00 W/m2
10:00 11.1 °C 10.2 °C 1021.2 hPa Calm     94% 1.0 mm 30.00 W/m2
10:05 11.1 °C 10.2 °C 1021.2 hPa Calm     94% 1.0 mm 32.00 W/m2
10:10 11.1 °C 10.3 °C 1021.2 hPa Calm     95% 1.5 mm 37.00 W/m2
10:15 11.1 °C 10.3 °C 1021.2 hPa Calm     95% 1.5 mm 41.00 W/m2
10:20 11.2 °C 10.4 °C 1021.2 hPa Calm     95% 1.8 mm 34.00 W/m2
10:25 11.2 °C 10.4 °C 1021.2 hPa Calm     95% 2.0 mm 49.00 W/m2
10:30 11.2 °C 10.4 °C 1020.9 hPa Calm     95% 2.0 mm 39.00 W/m2
10:35 11.2 °C 10.4 °C 1020.9 hPa Calm     95% 2.0 mm 41.00 W/m2
10:40 11.3 °C 10.5 °C 1020.9 hPa Calm     95% 2.0 mm 44.00 W/m2
10:45 11.3 °C 10.5 °C 1020.9 hPa Calm     95% 2.0 mm 69.00 W/m2
10:50 11.3 °C 10.5 °C 1020.9 hPa Calm     95% 1.8 mm 78.00 W/m2
10:55 11.4 °C 10.6 °C 1020.9 hPa Calm     95% 1.5 mm 78.00 W/m2
11:00 11.4 °C 10.6 °C 1020.9 hPa Calm     95% 1.3 mm 76.00 W/m2
11:05 11.4 °C 10.6 °C 1020.5 hPa Calm     95% 1.3 mm 72.00 W/m2
11:10 11.5 °C 10.7 °C 1020.5 hPa Calm     95% 0.8 mm 69.00 W/m2
11:15 11.6 °C 10.8 °C 1020.5 hPa Calm     95% 0.5 mm 70.00 W/m2
11:20 11.7 °C 10.9 °C 1020.5 hPa Calm     95% 0.5 mm 69.00 W/m2
11:25 11.7 °C 10.9 °C 1020.5 hPa Calm     95% 0.5 mm 79.00 W/m2
11:30 11.7 °C 10.9 °C 1020.5 hPa Calm     95% 0.5 mm 78.00 W/m2
11:35 11.7 °C 10.9 °C 1020.5 hPa Calm     95% 0.5 mm 81.00 W/m2
11:40 11.8 °C 11.0 °C 1020.5 hPa Calm     95% 0.5 mm 106.00 W/m2
11:45 11.8 °C 11.0 °C 1020.5 hPa Calm     95% 0.5 mm 104.00 W/m2
11:50 11.8 °C 11.0 °C 1020.5 hPa North 3.2 km/h 3.2 km/h 95% 0.5 mm 63.00 W/m2
11:55 11.8 °C 10.9 °C 1020.5 hPa SSW 1.8 km/h 6.4 km/h 94% 0.5 mm 46.00 W/m2
12:00 11.7 °C 10.8 °C 1020.2 hPa Calm   1.6 km/h 94% 0.5 mm 69.00 W/m2
12:05 11.7 °C 10.8 °C 1020.2 hPa SSW 1.8 km/h 3.2 km/h 94% 0.5 mm 118.00 W/m2
12:10 11.7 °C 10.8 °C 1019.9 hPa Calm   1.6 km/h 94% 0.5 mm 132.00 W/m2
12:15 11.8 °C 10.9 °C 1019.5 hPa Calm     94% 0.5 mm 99.00 W/m2
12:20 11.8 °C 10.9 °C 1019.5 hPa Calm   1.6 km/h 94% 0.5 mm 76.00 W/m2
12:25 11.9 °C 11.0 °C 1019.5 hPa Calm   1.6 km/h 94% 0.5 mm 69.00 W/m2
12:30 11.9 °C 11.0 °C 1019.5 hPa SSW 3.2 km/h 3.2 km/h 94% 0.5 mm 49.00 W/m2
12:35 11.9 °C 11.0 °C 1019.9 hPa Calm   1.6 km/h 94% 0.5 mm 74.00 W/m2
12:40 11.9 °C 11.0 °C 1019.5 hPa Calm     94% 0.8 mm 95.00 W/m2
12:45 11.9 °C 11.0 °C 1019.5 hPa Calm     94% 0.5 mm 165.00 W/m2
12:50 11.9 °C 11.0 °C 1019.2 hPa Calm     94% 0.5 mm 134.00 W/m2
12:55 11.9 °C 11.0 °C 1019.2 hPa Calm     94% 0.5 mm 185.00 W/m2
13:00 12.0 °C 11.1 °C 1018.8 hPa SSW 1.8 km/h 1.6 km/h 94% 0.5 mm 187.00 W/m2
13:05 12.0 °C 11.1 °C 1018.5 hPa SSW 1.8 km/h 3.2 km/h 94% 0.5 mm 144.00 W/m2
13:10 12.0 °C 10.9 °C 1018.5 hPa SSW 1.8 km/h 3.2 km/h 93% 0.5 mm 143.00 W/m2
13:15 12.0 °C 10.9 °C 1018.5 hPa Calm     93% 0.5 mm 114.00 W/m2
13:20 11.9 °C 10.8 °C 1018.5 hPa Calm   1.6 km/h 93% 0.5 mm 113.00 W/m2
13:25 12.0 °C 10.9 °C 1018.2 hPa Calm     93% 0.5 mm 114.00 W/m2
13:30 12.1 °C 11.0 °C 1018.2 hPa Calm     93% 0.5 mm 111.00 W/m2
13:35 12.0 °C 10.7 °C 1018.2 hPa Calm     92% 0.5 mm 134.00 W/m2
13:40 12.0 °C 10.7 °C 1018.2 hPa Calm     92% 0.3 mm 111.00 W/m2
13:45 12.0 °C 10.7 °C 1017.8 hPa Calm     92% 0.3 mm 132.00 W/m2
13:50 12.0 °C 10.7 °C 1017.8 hPa Calm     92% 0.3 mm 132.00 W/m2
13:55 12.0 °C 10.7 °C 1017.8 hPa Calm     92% 0.3 mm 118.00 W/m2
14:00 12.1 °C 10.7 °C 1017.5 hPa Calm     91% 0.3 mm 146.00 W/m2
14:05 12.0 °C 10.6 °C 1017.5 hPa SSW 1.8 km/h 3.2 km/h 91% 0.0 mm 132.00 W/m2
14:10 12.0 °C 10.6 °C 1017.5 hPa Calm   3.2 km/h 91% 0.0 mm 111.00 W/m2
14:15 12.0 °C 10.6 °C 1017.5 hPa Calm   3.2 km/h 91% 0.0 mm 104.00 W/m2
14:20 12.0 °C 10.6 °C 1017.2 hPa Calm   1.6 km/h 91% 0.0 mm 109.00 W/m2
14:25 12.0 °C 10.7 °C 1017.2 hPa SSW 3.2 km/h 3.2 km/h 92% 0.0 mm 109.00 W/m2
14:30 11.9 °C 10.6 °C 1016.8 hPa SSW 3.2 km/h 3.2 km/h 92% 0.0 mm 118.00 W/m2
14:35 12.0 °C 10.9 °C 1016.8 hPa ENE 3.2 km/h 4.8 km/h 93% 0.0 mm 128.00 W/m2
14:40 11.9 °C 10.8 °C 1016.8 hPa ENE 3.2 km/h 4.8 km/h 93% 0.0 mm 125.00 W/m2
14:45 11.9 °C 10.8 °C 1016.5 hPa NE 5.0 km/h 4.8 km/h 93% 0.3 mm 111.00 W/m2
14:50 11.9 °C 10.8 °C 1016.1 hPa North 3.2 km/h 6.4 km/h 93% 0.3 mm 153.00 W/m2
14:55 11.8 °C 10.7 °C 1016.5 hPa North 5.0 km/h 4.8 km/h 93% 0.3 mm 100.00 W/m2
15:00 11.8 °C 10.7 °C 1016.1 hPa North 5.0 km/h 4.8 km/h 93% 0.3 mm 92.00 W/m2
15:05 11.7 °C 10.6 °C 1016.1 hPa North 3.2 km/h 4.8 km/h 93% 0.3 mm 125.00 W/m2
15:10 11.7 °C 10.6 °C 1016.1 hPa North 1.8 km/h 3.2 km/h 93% 0.3 mm 99.00 W/m2
15:15 11.7 °C 10.8 °C 1016.5 hPa North 1.8 km/h 3.2 km/h 94% 0.3 mm 102.00 W/m2
15:20 11.8 °C 10.9 °C 1016.1 hPa NNE 3.2 km/h 4.8 km/h 94% 0.3 mm 81.00 W/m2
15:25 11.8 °C 10.9 °C 1016.1 hPa NNE 3.2 km/h 4.8 km/h 94% 0.3 mm 60.00 W/m2
15:30 11.7 °C 10.8 °C 1016.5 hPa NNE 1.8 km/h 3.2 km/h 94% 0.3 mm 37.00 W/m2
15:35 11.7 °C 10.8 °C 1016.5 hPa NNE 1.8 km/h 1.6 km/h 94% 0.3 mm 49.00 W/m2
15:40 11.7 °C 10.8 °C 1016.5 hPa Calm   1.6 km/h 94% 0.5 mm 46.00 W/m2
15:45 11.8 °C 10.9 °C 1016.5 hPa Calm   1.6 km/h 94% 0.5 mm 30.00 W/m2
15:50 11.8 °C 10.9 °C 1016.5 hPa Calm   1.6 km/h 94% 0.5 mm 46.00 W/m2
15:55 11.8 °C 10.9 °C 1016.5 hPa Calm     94% 1.0 mm 79.00 W/m2
16:00 11.8 °C 10.9 °C 1016.1 hPa NNE 3.2 km/h 4.8 km/h 94% 1.5 mm 46.00 W/m2
16:05 11.7 °C 10.8 °C 1016.1 hPa Calm   3.2 km/h 94% 1.5 mm 42.00 W/m2
16:10 11.7 °C 10.8 °C 1016.5 hPa NNE 1.8 km/h 3.2 km/h 94% 1.5 mm 41.00 W/m2
16:15 11.7 °C 10.8 °C 1016.1 hPa Calm     94% 1.5 mm 34.00 W/m2
16:20 11.7 °C 10.8 °C 1016.1 hPa Calm     94% 2.3 mm 25.00 W/m2
16:25 11.7 °C 10.8 °C 1016.5 hPa Calm     94% 2.3 mm 27.00 W/m2
16:30 11.7 °C 10.8 °C 1015.8 hPa NNE 1.8 km/h 1.6 km/h 94% 2.8 mm 58.00 W/m2
16:35 11.6 °C 10.7 °C 1016.1 hPa Calm   1.6 km/h 94% 3.6 mm 39.00 W/m2
16:40 11.6 °C 10.7 °C 1015.8 hPa NNE 5.0 km/h 6.4 km/h 94% 3.3 mm 42.00 W/m2
16:45 11.6 °C 10.7 °C 1015.1 hPa NNE 5.0 km/h 8.0 km/h 94% 3.8 mm 42.00 W/m2
16:50 11.6 °C 10.8 °C 1014.8 hPa NNE 3.2 km/h 9.7 km/h 95% 4.3 mm 65.00 W/m2
16:55 11.6 °C 10.8 °C 1015.5 hPa NNE 1.8 km/h 4.8 km/h 95% 5.1 mm 23.00 W/m2
17:00 11.7 °C 10.9 °C 1015.5 hPa NNE 1.8 km/h 1.6 km/h 95% 5.1 mm 27.00 W/m2
17:05 11.7 °C 10.9 °C 1015.1 hPa NNE 1.8 km/h 1.6 km/h 95% 5.1 mm 44.00 W/m2
17:10 11.6 °C 10.8 °C 1015.1 hPa NNE 5.0 km/h 4.8 km/h 95% 5.1 mm 35.00 W/m2
17:15 11.5 °C 10.7 °C 1015.1 hPa Calm   3.2 km/h 95% 5.1 mm 21.00 W/m2
17:20 11.5 °C 10.7 °C 1014.4 hPa NNE 1.8 km/h 3.2 km/h 95% 5.1 mm 19.00 W/m2
17:25 11.5 °C 10.7 °C 1014.8 hPa Calm   3.2 km/h 95% 5.1 mm 7.00 W/m2
17:30 11.5 °C 10.7 °C 1014.4 hPa Calm     95% 4.8 mm 7.00 W/m2
17:35 11.5 °C 10.7 °C 1014.4 hPa NNE 1.8 km/h 3.2 km/h 95% 4.1 mm 5.00 W/m2
17:40 11.5 °C 10.7 °C 1014.8 hPa Calm     95% 4.1 mm 0.00 W/m2
17:45 11.5 °C 10.7 °C 1014.8 hPa NNE 1.8 km/h 1.6 km/h 95% 3.3 mm 0.00 W/m2
17:50 11.5 °C 10.7 °C 1014.4 hPa Calm   1.6 km/h 95% 3.0 mm 0.00 W/m2
17:55 11.5 °C 10.7 °C 1014.8 hPa Calm     95% 2.0 mm 0.00 W/m2
18:00 11.4 °C 10.6 °C 1014.8 hPa NNE 5.0 km/h 4.8 km/h 95% 1.5 mm 0.00 W/m2
18:05 11.4 °C 10.6 °C 1014.8 hPa NNE 5.0 km/h 4.8 km/h 95% 1.5 mm 0.00 W/m2
18:10 11.4 °C 10.6 °C 1014.8 hPa NNE 5.0 km/h 4.8 km/h 95% 1.5 mm 0.00 W/m2
18:15 11.4 °C 10.6 °C 1014.8 hPa NNE 1.8 km/h 1.6 km/h 95% 1.5 mm 0.00 W/m2
18:20 11.4 °C 10.6 °C 1014.8 hPa NNE 3.2 km/h 3.2 km/h 95% 1.0 mm 0.00 W/m2
18:25 11.4 °C 10.6 °C 1014.8 hPa NNE 1.8 km/h 3.2 km/h 95% 0.8 mm 0.00 W/m2
18:30 11.4 °C 10.6 °C 1014.8 hPa Calm   1.6 km/h 95% 0.5 mm 0.00 W/m2
18:35 11.4 °C 10.6 °C 1014.8 hPa Calm     95% 0.5 mm 0.00 W/m2
18:40 11.4 °C 10.6 °C 1014.4 hPa NNE 3.2 km/h 3.2 km/h 95% 0.5 mm 0.00 W/m2
18:45 11.4 °C 10.6 °C 1014.1 hPa NNE 5.0 km/h 4.8 km/h 95% 0.5 mm 0.00 W/m2
18:50 11.4 °C 10.6 °C 1014.1 hPa Calm     95% 0.3 mm 0.00 W/m2
18:55 11.4 °C 10.6 °C 1014.1 hPa Calm     95% 0.3 mm 0.00 W/m2
19:00 11.4 °C 10.6 °C 1014.1 hPa Calm     95% 0.3 mm 0.00 W/m2
19:05 11.4 °C 10.6 °C 1014.1 hPa Calm     95% 0.0 mm 0.00 W/m2
19:10 11.4 °C 10.6 °C 1014.1 hPa Calm     95% 0.0 mm 0.00 W/m2
19:15 11.3 °C 10.5 °C 1013.8 hPa Calm     95% 0.3 mm 0.00 W/m2
19:20 11.3 °C 10.5 °C 1013.8 hPa Calm     95% 0.3 mm 0.00 W/m2
19:25 11.3 °C 10.5 °C 1013.8 hPa Calm     95% 0.3 mm 0.00 W/m2
19:30 11.3 °C 10.5 °C 1013.8 hPa Calm     95% 0.3 mm 0.00 W/m2
19:35 11.3 °C 10.5 °C 1013.8 hPa Calm     95% 0.3 mm 0.00 W/m2
19:40 11.2 °C 10.6 °C 1013.4 hPa Calm     96% 0.3 mm 0.00 W/m2
19:45 11.2 °C 10.6 °C 1013.8 hPa Calm     96% 0.3 mm 0.00 W/m2
19:50 11.2 °C 10.4 °C 1014.1 hPa Calm     95% 0.3 mm 0.00 W/m2
19:55 11.2 °C 10.4 °C 1013.8 hPa Calm     95% 0.5 mm 0.00 W/m2
20:00 11.2 °C 10.4 °C 1013.8 hPa Calm     95% 0.5 mm 0.00 W/m2
20:05 11.1 °C 10.3 °C 1013.8 hPa Calm     95% 0.5 mm 0.00 W/m2
20:10 11.1 °C 10.5 °C 1014.1 hPa Calm     96% 0.5 mm 0.00 W/m2
20:15 11.1 °C 10.5 °C 1014.1 hPa Calm     96% 0.5 mm 0.00 W/m2
20:20 11.1 °C 10.5 °C 1014.1 hPa Calm     96% 0.5 mm 0.00 W/m2
20:25 11.0 °C 10.4 °C 1013.8 hPa Calm     96% 0.5 mm 0.00 W/m2
20:30 11.0 °C 10.4 °C 1013.8 hPa Calm     96% 0.5 mm 0.00 W/m2
20:35 11.0 °C 10.4 °C 1013.8 hPa Calm     96% 0.5 mm 0.00 W/m2
20:40 11.0 °C 10.4 °C 1013.8 hPa Calm     96% 0.5 mm 0.00 W/m2
20:45 11.0 °C 10.4 °C 1013.4 hPa Calm     96% 0.8 mm 0.00 W/m2
20:50 11.0 °C 10.4 °C 1013.4 hPa Calm     96% 0.8 mm 0.00 W/m2
20:55 11.0 °C 10.4 °C 1013.4 hPa Calm     96% 0.5 mm 0.00 W/m2
21:00 11.0 °C 10.4 °C 1013.8 hPa Calm     96% 0.5 mm 0.00 W/m2
21:05 11.0 °C 10.4 °C 1013.4 hPa Calm     96% 0.8 mm 0.00 W/m2
Station Météo Léran